Location: Palomar Mountain Lodge
(33.3110°N, 116.8495°W)
Time: 09:50:19
(UTC-07:00)

Daily predictions for brighter satellites

Satellite Brightness Start Highest point End
(mag) Time Altitude Azimuth Time Altitude Azimuth Time Altitude Azimuth
Cosmos 2034 Rocket 4.1 19:35:36 10° S 19:41:57 78° E 19:48:18 10° N
NOSS 3-4 (A) 4.2 19:35:07 10° NNW 19:42:27 81° WSW 19:50:51 10° SSE
NOSS 3-4 (C) 4.2 19:35:11 10° NNW 19:42:31 82° WSW 19:50:55 10° SSE
Cosmos 1980 Rocket 3.5 19:40:13 10° SW 19:45:38 48° WNW 19:51:05 10° N
Cosmos 2322 Rocket 3.6 19:42:41 10° SE 19:46:12 17° E 19:49:43 10° ENE
Meteor 1-31 Rocket 2.7 19:43:03 10° S 19:46:34 80° WSW 19:50:05 10° NNW
SL-4 R/B 1.3 19:48:34 10° SW 19:51:47 82° SE 19:55:07 10° NE
Cosmos 1378 Rocket 3.9 19:49:39 10° N 19:53:49 43° E 19:58:00 10° SSE
NOSS 8 (A) 4.5 19:54:08 10° NNW 19:57:21 81° ENE 20:01:27 10° SSE
Cosmos 2237 4.2 19:53:06 10° S 19:58:43 62° ESE 20:04:21 10° NNE
Cosmos 2219 3.3 19:55:08 10° NNW 20:00:49 62° ENE 20:06:28 10° SSE
Cosmos 2279 Rocket 4.5 19:58:41 10° SSE 20:04:21 38° E 20:10:03 10° NNE
YAOGAN 1 4.2 20:01:55 10° SSW 20:05:49 36° W 20:09:44 10° NNW
Intelsat 5-3 Rocket 4.0 20:05:50 10° SW 20:09:42 19° S 20:11:50 12° SE
Helios 1B rocket 3.8 20:08:33 14° ESE 20:10:10 18° ENE 20:12:45 10° NNE
Cosmos 1420 Rocket 3.9 20:05:22 10° S 20:10:29 70° ESE 20:15:40 10° NNE
Cosmos 1674 Rocket 3.6 20:08:30 10° N 20:12:43 53° E 20:16:53 10° SSE
Cosmos 1371 Rocket 4.2 20:09:43 10° S 20:14:38 47° ESE 20:19:36 10° NNE
CZ-4B R/B 4.5 20:12:33 15° ESE 20:15:33 26° ENE 20:19:29 10° NNE
CZ-4C R/B 3.2 20:15:52 10° WSW 20:19:37 37° NW 20:24:08 10° NNE
Cosmos 2251 Rocket 4.1 20:16:01 10° N 20:20:58 39° ENE 20:24:29 18° SE
USA 186 2.6 20:20:59 24° E 20:21:39 26° ENE 20:24:06 10° NNE
Hubble Space Telescope 1.7 20:20:24 10° SW 20:23:43 28° SSE 20:25:08 22° SE
Cosmos 2056 Rocket 3.5 20:19:11 10° S 20:24:20 62° ESE 20:29:36 10° NNE
Cosmos 2360 Rocket 2.8 20:21:59 10° SSE 20:26:59 33° ESE 20:31:58 10° NE
CZ-4B R/B 4.0 20:26:32 22° E 20:27:40 25° ENE 20:30:58 10° NNE
Meteor 1-21 Rocket 4.3 20:24:44 10° N 20:30:37 90° W 20:36:31 10° S
CARTOSAT-1 3.9 20:28:54 10° S 20:33:03 62° W 20:37:13 10° NNW
SL-08 R/B 3.6 20:28:16 10° N 20:33:07 74° WNW 20:37:59 10° SSW
SeaSat 1 3.1 20:31:08 22° ESE 20:33:37 37° ENE 20:38:07 10° N
GOES 2 Rocket 3.7 20:29:38 10° WSW 20:34:53 45° S 20:37:00 27° ESE
OAO 3 Rocket 3.1 20:31:05 10° WNW 20:35:48 81° N 20:38:21 26° E
Cosmos 1782 Rocket 3.8 20:32:11 12° SSE 20:36:07 46° E 20:40:20 10° NNE
Cosmos 1624 Rocket 3.9 20:32:07 10° SSW 20:37:22 82° ESE 20:42:37 10° NNE
CZ-2C R/B 3.8 20:35:08 10° SSW 20:38:08 36° W 20:41:09 10° NNW
Okean-O 4.3 20:38:27 16° ENE 20:38:27 16° ENE 20:41:07 10° NNE
ERS-1 Rocket 4.4 20:39:18 18° ENE 20:39:54 18° ENE 20:43:17 10° NNE
ADEOS 3.5 20:39:59 11° SSE 20:45:03 86° WSW 20:50:17 10° NNW
CZ-4B DEB 4.2 20:39:55 10° SSE 20:45:24 84° WSW 20:50:57 10° NNW
Meteor PRIRODA 4.1 20:46:09 30° NE 20:46:09 30° NE 20:48:16 10° N
Cosmos 1025 Rocket 2.8 20:41:41 10° N 20:45:58 74° E 20:48:21 25° SSE
Cosmos 407 Rocket 3.6 20:41:16 10° NNW 20:46:24 74° WSW 20:50:35 15° S
Cosmos 1818 3.8 20:41:20 10° NNW 20:46:38 53° ENE 20:48:55 31° ESE
Cosmos 1844 Rocket 3.6 20:43:09 10° N 20:48:08 31° ENE 20:49:39 27° E
Cosmos 2142 Rocket 4.4 20:43:21 10° S 20:49:39 75° E 20:55:55 10° N
Cosmos 2082 4.1 20:47:36 10° NNW 20:53:15 63° WSW 20:57:55 15° S
Cosmos 2333 Rocket 2.1 20:49:25 10° SSW 20:55:07 73° ESE 21:00:52 10° NNE
Intercosmos 25 4.3 20:47:40 10° S 20:55:21 89° W 21:00:00 10° N
Cosmos 2266 Rocket 4.5 20:50:33 10° NNE 20:56:02 36° E 20:57:19 33° ESE
CZ-4 R/B 2.1 20:53:25 14° S 20:56:25 47° W 21:00:08 10° NNW
SJ 16-02 3.4 20:55:13 10° NNE 20:56:35 13° NE 20:56:35 13° NE
Cosmos 2221 Rocket 4.1 20:53:26 10° NNW 20:57:47 57° W 21:01:25 14° S
Cosmos 2263 Rocket 3.6 20:53:08 10° NW 20:58:14 36° WSW 21:03:20 10° SSW
SL-16 R/B 2.9 20:54:43 10° SW 21:00:13 54° WNW 21:05:46 10° N
Resurs 01 Rocket 3.2 20:57:10 10° SSW 21:01:10 34° W 21:05:11 10° NNW
USA 290 3.4 21:00:27 10° N 21:02:30 33° NNE 21:02:30 33° NNE
CZ-4B R/B 3.2 21:01:54 27° SSE 21:05:09 87° ENE 21:10:50 10° NNW
SPOT 5 2.9 21:03:37 42° SE 21:05:14 66° ENE 21:10:06 10° N
Tiangong -1.1 21:04:54 10° WNW 21:07:23 40° WSW 21:07:23 40° WSW
Cosmos 676 Rocket 4.3 21:02:53 10° N 21:07:59 46° ENE 21:08:37 44° E
DNEPR-1 R/B 3.3 21:04:20 10° NNW 21:08:32 69° ENE 21:08:52 65° E
Delta 2 Rocket 3.1 21:05:39 10° WSW 21:09:57 90° NNW 21:10:20 73° ENE
Cosmos 1932 4.3 21:06:13 10° SSW 21:12:20 75° ESE 21:18:34 10° NNE
Cosmos 2084 3.2 21:08:37 10° NNW 21:12:13 65° NNE 21:12:13 65° NNE
Helios 1A 2.8 21:08:33 10° N 21:12:35 83° WNW 21:13:47 44° SSW
RESURS DK-1 2.5 21:09:21 10° NNW 21:12:56 55° NE 21:12:56 55° NE
Delta 142 4.3 21:10:37 10° WSW 21:14:26 35° SSW 21:14:26 35° SSW
Okean O Rocket 1.5 21:14:59 63° ENE 21:15:01 63° ENE 21:19:23 10° N
MOS 1 4.2 21:14:11 47° SE 21:15:41 66° ENE 21:21:19 10° N
Cosmos 1844 3.8 21:15:21 10° N 21:20:46 52° ENE 21:21:10 51° E
Cosmos 1461 3.0 21:22:18 10° NNW 21:25:53 68° NW 21:25:53 68° NW
Cosmos 44 3.9 21:24:26 10° SW 21:28:41 49° WNW 21:32:53 10° NNE
Cosmos 2322 Rocket 2.9 21:24:11 10° SW 21:29:41 52° WNW 21:35:14 10° N
BREEZE-M DEB (TANK) 3.5 21:20:22 10° NW 21:32:03 90° SE 21:32:32 74° SE
Cosmos 2219 Rocket 2.0 21:41:48 82° S 21:42:02 86° ESE 21:47:44 10° NNE
Cosmos 1331 Rocket 3.9 21:42:19 79° WSW 21:42:33 82° WNW 21:47:50 10° NNE
Helios 1B rocket 4.3 21:43:18 21° WSW 21:43:45 21° W 21:46:37 10° NW
Cosmos 1452 Rocket 3.6 21:48:33 70° N 21:48:33 70° N 21:53:16 10° NNE
BREEZE M DEB (TANK) 4.0 21:36:23 10° NW 21:53:18 62° SW 21:54:28 54° SSW
Terra 2.6 21:59:18 47° NNW 21:59:18 47° NNW 22:02:40 10° NNW
IRS-1A Rocket 4.3 21:58:37 82° WNW 21:58:37 82° WNW 22:04:19 10° NNW
Cosmos 1975 Rocket 4.4 21:57:12 10° NNW 22:00:28 38° WNW 22:00:28 38° WNW
Cosmos 2360 Rocket 4.1 22:06:08 10° WSW 22:10:54 28° WNW 22:15:41 10° N
SeaSat 1 4.3 22:10:47 22° WSW 22:11:01 22° WSW 22:14:49 10° NW
ATLAS 2AS CENTAUR R/B 3.5 22:06:17 10° NNW 22:11:45 36° NE 22:11:45 36° NE
Okean-O 4.4 22:15:48 28° WNW 22:15:48 28° WNW 22:18:27 10° NNW
ERS-1 Rocket 4.2 22:19:11 37° WNW 22:19:11 37° WNW 22:22:57 10° NNW
CZ-3 Stage 3 3.7 22:19:51 10° W 22:26:07 31° WSW 22:26:07 31° WSW
Cosmos 1844 Rocket 4.2 22:27:01 10° NW 22:31:19 29° W 22:31:19 29° W
SJ 16-02 3.9 22:31:50 10° NNW 22:33:12 19° NW 22:33:12 19° NW
Cosmos 2278 Rocket 4.4 22:55:18 10° N 22:56:56 17° NNE 22:56:56 17° NNE
